Location: Invercargill
(46.4000°S, 168.3500°E)
Time: 18:13:48
(UTC+12:00)

H-2A R/B - Pass Details

Date: 14 May 2021
Orbit: 501 x 538 km, 97.3° (Epoch: 12 March)

Event Time Altitude Azimuth Distance (km) Brightness Sun altitude
Rises 18:47:38 0° 176° (S) 2,722 6.2 -14.2°
Reaches altitude 10° 18:49:53 10° 184° (S) 1,817 5.4 -14.6°
Maximum altitude 18:53:29 36° 250° (WSW) 862 4.3 -15.2°
Drops below altitude 10° 18:57:02 10° 317° (NW) 1,773 6.2 -15.8°
Sets 18:59:12 0° 326° (NW) 2,646 7.0 -16.2°
